RH
70 71 68 68 66 68 67 66 71 62 59 62 63 58 61 59 57 76 89 85 92 99 88 80 74 96 91 83 89 91 89 92 94 95 95 93 89 78 89 88 89 84 94 98 98 99 95 60 83 84 68 78 79 80
74 73 69 69 69 72 66 65 68 69 64 61 63 61 62 61 54 64 93 83 81 99 91 81 76 73 77 85 87 86 86 89 87 94 95 91 93 92 92 91 82 84 76 82 87 79 55 63 69 72 72 76 80 84
77 80 80 73 71 69 68 67 67 72 65 63 58 62 61 64 58 66 94 94 91 98 96 94 90 73 72 80 79 89 91 82 83 84 91 92 99 93 94 94 86 77 68 78 77 70 67 60 74 68 75 79 77 78
87 82 74 69 69 69 71 67 68 73 66 59 64 65 61 62 65 61 92 92 92 96 99 92 78 83 73 82 76 76 81 87 85 89 92 92 96 87 94 87 92 82 75 79 80 67 70 75 73 69 72 74 75 78
85 78 72 70 71 73 73 67 70 74 70 61 64 64 67 68 69 79 93 93 88 97 99 98 81 82 80 79 84 84 88 91 95 96 97 96 90 91 94 93 96 85 78 86 76 64 69 70 75 72 73 75 74 75
80 78 75 72 72 78 70 69 71 75 70 66 68 67 68 71 70 89 94 95 93 92 99 100 92 94 91 84 86 90 91 93 94 96 95 93 87 88 98 96 62 76 62 62 71 65 67 70 71 75 72 73 72 73
77 80 76 76 76 80 72 71 71 74 69 67 68 66 70 76 90 89 86 94 90 92 99 100 100 95 86 89 94 96 94 96 95 96 98 91 90 90 83 88 72 69 70 69 60 67 78 73 73 70 68 70 66 64
84 78 78 76 74 71 77 73 72 74 69 69 68 68 73 71 77 90 84 82 92 97 99 100 98 96 88 98 99 95 99 98 99 97 96 95 90 94 98 83 70 65 66 74 73 68 73 79 74 74 72 66 68 66
85 85 77 75 76 75 80 70 74 72 71 68 67 70 90 92 78 96 83 84 95 97 100 99 99 100 92 93 98 99 96 99 95 99 97 97 88 96 89 77 68 74 81 81 81 78 73 79 79 76 73 71 68 68
85 81 78 77 78 78 77 71 75 72 70 70 87 92 83 96 81 87 98 98 100 98 99 99 92 98 94 95 99 97 99 99 100 96 98 95 96 86 72 71 76 81 88 93 96 91 98 97 88 79 74 68 64 65
84 81 76 72 74 81 79 71 72 72 71 88 88 89 95 83 98 98 99 100 99 100 97 97 94 94 93 94 95 96 99 100 100 98 98 100 100 76 74 80 76 79 86 86 88 88 88 88 85 80 76 68 64 59
84 81 72 73 77 82 77 73 72 86 93 88 88 89 96 94 99 100 100 100 100 98 98 98 93 89 97 95 94 97 100 99 98 90 99 98 91 85 80 78 76 76 80 79 81 89 86 86 85 77 71 66 60 60
84 84 82 79 76 81 74 74 70 67 77 93 98 100 100 99 99 99 99 100 100 100 100 100 100 96 92 94 98 98 100 97 90 98 94 97 91 83 82 80 78 78 78 75 78 82 85 79 75 69 65 61 59 56
83 78 78 75 80 81 74 75 67 78 95 97 97 100 99 99 98 98 98 100 100 100 100 99 100 98 95 99 98 97 88 91 99 99 95 97 96 89 84 79 80 83 83 79 76 78 86 85 84 69 61 59 60 63
83 81 76 78 86 80 74 71 65 92 96 96 96 98 99 96 100 100 100 100 100 99 100 100 100 94 100 100 98 98 99 94 90 92 98 99 95 94 88 82 83 86 87 84 80 77 76 81 92 93 92 84 77 82
83 83 91 81 73 74 73 74 88 94 96 95 95 99 92 98 99 100 99 100 99 96 100 100 100 100 100 98 99 98 92 85 95 99 99 98 94 94 93 88 87 86 86 86 83 79 76 73 80 92 90 90 90 80
85 96 79 76 76 74 72 97 98 95 96 96 98 91 97 99 99 99 89 85 83 99 100 100 99 96 99 100 99 93 95 98 98 99 99 94 93 94 94 92 92 92 89 89 89 84 82 76 66 73 86 82 77 77
97 90 80 75 82 76 93 100 96 96 100 97 99 97 87 87 92 91 88 86 92 99 100 100 99 99 99 99 98 99 98 97 97 99 97 94 90 92 90 95 94 96 95 93 96 96 94 91 80 73 82 85 79 73
90 89 81 79 81 93 95 96 96 98 96 97 96 95 92 88 87 84 85 90 93 96 99 99 99 96 97 99 99 99 98 93 86 83 83 79 84 88 92 95 88 86 96 96 96 96 95 90 85 78 75 70 69 68
84 83 81 82 75 95 90 96 97 100 100 95 96 97 96 92 89 89 88 89 96 99 99 99 93 92 96 95 98 98 98 95 93 89 82 85 90 96 95 96 95 93 93 94 96 89 95 87 81 77 74 71 70 68
93 95 90 92 94 96 94 98 97 98 99 97 98 98 97 98 98 98 97 94 99 100 100 95 95 95 97 98 92 91 93 93 92 82 75 94 89 98 98 97 96 90 90 78 86 92 96 96 90 90 92 75 70 68
99 97 98 93 94 94 94 97 97 97 98 98 98 98 99 99 98 97 98 98 96 94 94 95 97 97 97 96 93 92 80 84 84 87 76 86 95 97 98 97 98 98 97 96 84 89 97 95 96 80 80 91 77 69
97 97 98 96 95 95 90 97 96 98 99 96 97 97 97 99 98 95 100 96 93 94 95 97 97 97 95 89 89 77 81 81 83 89 87 89 91 95 98 96 96 100 96 93 95 97 96 89 88 84 79 76 82 78
88 98 97 96 95 96 92 99 98 100 99 99 99 95 93 98 98 99 99 93 94 98 98 96 96 95 95 92 94 89 81 92 96 96 88 93 96 83 82 89 89 90 92 89 96 96 97 96 88 88 80 79 80 81
98 97 96 98 96 93 95 100 100 100 99 96 96 95 95 99 99 99 95 89 98 100 98 97 96 96 94 99 97 94 93 91 91 89 93 94 95 96 95 90 79 78 88 98 97 97 96 97 97 94 86 81 84 88
97 96 94 94 98 89 89 97 98 96 95 97 96 98 98 97 100 82 81 93 96 97 97 96 94 97 96 91 93 95 90 92 93 92 94 89 92 94 96 94 90 91 92 93 98 98 96 98 98 98 94 88 89 94
98 96 94 76 83 82 89 82 80 94 96 96 95 97 96 93 80 69 82 90 95 95 96 94 91 89 87 94 95 96 97 95 88 90 94 95 94 92 92 91 90 83 90 94 95 94 94 89 89 97 96 95 94 95
95 93 95 92 90 94 84 93 87 87 86 83 82 94 87 76 64 76 83 94 97 98 98 98 98 97 96 96 97 97 98 99 98 97 96 93 94 93 92 89 87 82 85 91 93 93 95 95 92 96 96 95 94 96
95 88 82 95 95 95 85 77 82 79 68 78 81 76 78 78 88 93 92 97 96 97 94 94 96 99 98 98 99 99 98 97 95 99 95 87 96 94 93 96 98 99 96 96 91 88 93 94 95 94 95 94 94 94
95 90 90 92 89 86 89 83 91 93 86 86 84 91 89 88 91 98 97 97 95 91 95 97 98 94 92 95 93 96 99 97 95 91 94 90 91 96 97 98 96 94 96 98 97 96 86 89 94 96 97 97 96 95
89 95 93 93 91 97 96 86 89 81 92 97 98 95 88 95 88 93 94 96 96 98 97 97 100 100 99 100 100 100 95 96 97 95 94 93 93 94 93 92 91 94 97 99 98 96 95 95 96 97 96 95 95 94
98 94 90 96 98 96 91 96 97 97 97 97 96 100 95 94 88 83 98 98 100 100 99 98 99 92 95 95 98 97 83 97 98 96 97 95 94 92 91 91 96 98 97 96 93 94 95 96 96 95 94 95 95 95
99 98 97 97 97 96 97 92 96 94 97 98 96 96 96 94 82 85 97 99 96 96 96 96 96 97 98 97 98 99 91 98 100 90 84 83 81 87 92 94 95 97 97 96 96 95 96 95 95 95 95 95 95 95
Wind_Speed
12 10 7 5 5 6 7 11 13 10 11 10 10 9 11 9 9 3 4 2 2 3 7 5 4 3 4 1 4 4 4 1 2 2 2 2 2 3 2 4 6 7 6 4 4 5 8 4 4 3 4 3 3 2
14 11 7 4 5 9 8 11 13 9 11 10 11 10 11 9 8 2 1 2 1 3 6 5 11 14 7 3 3 2 3 3 3 1 1 1 1 1 1 3 2 4 6 5 8 7 4 3 4 1 0 3 3 2
14 8 5 5 7 9 10 11 14 12 10 11 11 13 13 10 9 2 2 2 2 2 6 5 8 7 7 8 5 5 1 3 2 2 2 1 3 2 3 5 2 3 3 3 1 2 7 7 2 2 2 3 4 4
10 9 8 6 5 9 11 12 13 16 11 12 12 12 13 12 10 6 3 3 1 2 3 6 3 4 4 5 4 2 4 4 3 2 2 2 2 3 3 2 3 5 4 2 5 8 4 4 4 3 2 2 1 3
11 11 10 6 4 8 11 12 15 18 10 13 13 14 15 13 13 6 3 4 5 3 3 6 10 3 2 5 5 4 5 5 3 2 2 3 1 1 2 1 3 3 5 4 5 5 3 5 3 2 3 2 3 5
13 8 5 1 4 9 14 13 15 17 12 14 14 14 15 13 6 1 3 1 4 4 2 5 3 5 3 3 5 4 4 2 2 2 2 2 2 2 2 2 4 4 3 5 5 4 5 6 3 2 3 4 3 6
13 9 5 2 5 9 14 14 15 16 14 15 14 15 15 10 3 3 2 2 6 6 3 4 2 2 4 3 2 2 1 1 2 2 2 2 3 4 3 5 3 6 8 13 8 4 4 5 5 6 4 5 6 5
11 9 7 9 7 12 11 14 15 15 16 16 15 11 5 7 6 1 3 6 4 1 3 4 0 3 3 2 2 2 2 2 2 2 0 2 2 3 4 3 7 8 12 6 12 6 4 2 6 5 4 5 7 6
13 11 9 12 8 12 9 13 15 13 16 16 9 5 2 1 2 2 1 7 4 4 3 2 1 2 3 2 2 2 2 2 2 3 3 2 2 4 3 8 10 9 8 12 13 9 2 2 5 5 5 6 6 6
14 12 13 8 11 12 9 12 14 13 15 9 3 1 1 1 4 1 3 3 4 4 4 3 2 1 2 2 2 2 2 2 3 1 2 3 2 8 5 7 6 9 9 9 7 7 2 3 5 7 8 5 6 8
14 15 10 9 8 6 8 12 9 11 6 3 2 1 2 6 1 2 2 3 2 3 3 3 1 1 1 2 1 1 1 1 1 1 2 2 2 3 7 7 7 9 9 10 9 11 10 8 6 7 7 8 7 9
13 11 10 7 10 3 7 10 6 3 1 3 1 2 2 2 1 2 3 2 3 3 2 1 2 0 1 1 1 1 2 1 3 2 1 2 2 4 7 9 10 10 10 11 8 8 6 8 7 7 7 8 8 8
13 12 12 12 6 2 5 6 4 4 2 1 2 1 1 2 3 4 5 3 2 1 1 1 1 1 1 2 2 1 2 3 2 2 3 1 2 5 8 8 10 9 10 11 12 10 8 4 2 5 6 7 9 9
14 12 10 10 6 3 6 4 2 2 2 1 2 4 4 3 4 3 1 1 2 1 1 2 1 1 1 2 1 2 3 1 2 3 3 1 3 6 7 7 8 11 11 10 10 10 8 4 5 6 7 7 8 9
13 11 9 7 4 5 7 1 2 2 2 1 2 5 4 1 1 1 0 1 1 1 0 1 1 0 1 2 2 1 2 4 4 3 2 2 4 4 6 8 8 9 10 9 10 9 7 5 2 4 5 6 8 10
12 8 4 5 2 1 5 3 2 2 1 0 2 2 2 1 1 1 1 1 0 2 1 0 1 2 3 2 3 5 2 6 3 3 2 1 3 4 4 6 7 7 7 7 8 8 7 6 2 3 5 6 6 9
10 2 9 6 6 7 4 2 1 2 2 2 3 3 2 2 2 0 1 1 2 1 2 2 4 3 2 3 3 4 4 2 4 2 2 3 3 4 5 5 6 8 8 8 7 7 7 6 2 2 4 5 6 8
2 6 12 10 6 3 1 1 2 2 4 3 1 2 2 1 1 1 1 2 1 1 1 1 1 3 4 4 4 4 3 2 1 2 2 3 3 2 2 5 5 5 6 7 6 6 4 4 1 2 1 2 5 5
8 9 13 12 5 3 2 2 2 2 4 2 2 2 1 0 1 1 1 1 2 1 2 2 4 4 5 3 3 2 3 3 3 2 2 3 2 2 4 4 5 6 4 6 5 5 4 4 4 3 3 3 3 3
18 16 13 13 6 3 3 3 2 1 2 2 1 1 1 0 1 1 1 1 2 1 1 4 5 4 4 3 3 3 3 3 3 1 3 3 1 2 4 4 4 5 4 4 4 8 3 4 2 2 3 4 4 4
10 9 11 4 2 3 3 2 2 3 2 1 1 1 2 1 1 1 1 1 1 4 4 5 4 2 1 1 3 3 4 4 4 4 3 2 3 2 3 3 3 4 4 5 6 7 7 4 4 2 3 3 4 4
3 8 3 1 3 2 2 1 3 1 1 2 2 1 1 2 2 3 1 3 5 5 5 4 3 4 3 3 4 4 4 5 3 2 4 5 3 2 2 3 3 3 3 3 5 7 4 6 4 3 4 3 5 4
11 4 3 2 4 2 5 2 1 1 1 3 2 2 2 2 3 1 3 4 5 4 3 3 3 1 4 2 3 3 4 5 4 4 4 4 4 3 3 4 3 2 5 4 3 4 5 10 8 4 3 4 3 3
3 4 5 5 4 4 2 1 1 1 1 1 2 4 3 3 1 2 5 4 5 1 3 5 3 3 3 3 2 3 4 4 2 2 3 2 2 4 3 4 3 4 5 5 5 6 5 6 8 2 4 6 6 6
3 5 6 3 0 4 2 1 2 2 4 3 4 4 3 1 1 3 5 5 2 2 2 3 3 2 4 2 2 3 4 5 4 5 3 4 2 2 3 5 6 5 4 4 5 4 5 5 4 3 5 6 8 8
6 7 9 8 3 6 7 6 6 7 3 4 5 1 0 1 1 8 5 4 4 4 5 7 7 4 3 5 3 3 4 5 4 3 3 6 5 4 4 5 7 5 4 4 3 4 5 5 5 6 6 9 14 10
7 7 3 0 4 4 2 1 1 3 5 5 3 4 2 3 7 6 3 3 3 3 4 5 6 7 6 3 3 2 2 4 6 4 1 3 4 5 5 6 10 6 3 3 3 4 6 8 9 7 7 6 9 9
4 6 10 7 2 1 6 4 7 8 5 4 5 5 6 8 6 4 4 2 2 1 1 0 0 3 3 3 3 3 1 1 2 4 4 5 5 6 8 8 8 18 10 6 7 7 8 8 9 7 8 9 8 8
4 3 6 4 3 4 7 7 7 5 4 5 7 5 6 4 3 2 3 1 1 2 1 1 2 2 2 2 1 1 3 4 3 4 7 8 3 4 5 4 3 3 5 6 13 13 11 10 10 9 9 9 7 8
5 5 4 5 7 8 6 5 3 2 0 1 0 2 3 4 4 2 2 2 2 5 4 3 3 4 4 4 3 4 3 5 6 6 5 8 5 3 2 3 4 5 4 5 6 8 14 12 10 11 9 6 7 7
8 4 4 4 5 1 1 1 2 2 2 1 1 2 3 5 6 4 5 4 3 3 3 2 2 3 4 4 4 2 4 3 5 7 7 6 6 6 7 7 7 6 5 5 6 7 8 8 7 6 10 11 12 12
1 5 6 5 3 1 1 2 1 1 2 2 2 1 3 3 4 5 2 3 3 2 7 4 3 4 5 4 2 3 7 2 4 5 8 7 8 10 9 8 6 5 6 7 8 8 9 8 7 9 11 13 12 12
3 3 3 4 3 3 1 3 2 3 1 2 3 2 2 3 8 5 2 2 3 4 3 4 3 3 4 5 5 4 6 4 8 16 20 21 24 19 9 8 6 6 7 7 7 8 7 10 9 11 12 13 13 13
Wind_Direction
221 226 245 270 309 320 326 310 318 318 323 326 325 333 327 330 344 43 284 329 25 301 279 270 285 290 330 136 147 159 71 22 50 131 163 228 188 229 171 176 176 179 188 192 174 217 259 177 109 201 231 289 293 297
223 224 211 258 311 296 320 303 310 304 314 318 315 315 316 318 319 8 267 284 281 215 279 320 283 279 260 295 129 146 147 143 178 144 212 140 266 17 171 241 166 209 199 183 189 213 247 250 256 277 87 267 304 303
229 216 232 260 284 304 302 303 305 312 305 311 309 312 311 311 301 249 217 236 289 268 283 245 234 243 207 226 241 123 282 161 149 169 157 151 238 151 202 237 234 263 193 222 206 294 245 277 285 299 350 272 289 251
215 221 236 272 292 305 307 308 302 307 304 312 298 303 297 296 295 280 170 204 147 287 267 274 223 226 162 180 196 157 137 99 70 97 170 209 235 166 237 247 206 223 3 223 256 298 315 274 243 251 263 294 360 74
213 229 241 248 302 313 311 311 306 307 302 311 309 298 299 292 286 272 189 203 182 198 312 292 313 233 145 178 163 122 126 110 179 171 186 217 245 160 234 215 240 205 215 180 244 239 214 261 233 212 217 221 168 138
212 225 213 187 324 317 316 311 305 310 313 308 309 313 308 305 285 161 331 179 178 121 267 267 273 145 119 141 124 122 141 126 149 187 190 216 246 186 232 249 244 228 262 232 253 261 241 268 233 177 192 163 166 156
212 203 196 244 270 284 293 308 304 311 315 316 320 318 309 288 147 161 193 71 154 121 237 266 178 105 130 109 105 114 116 139 154 206 208 204 221 178 248 250 269 343 324 311 281 282 266 196 233 184 157 133 121 98
205 211 209 250 253 281 302 304 306 313 314 319 320 313 319 118 115 267 218 136 100 218 261 271 219 120 165 143 140 173 144 148 185 218 185 205 174 216 251 310 348 352 327 309 354 329 281 86 106 120 116 135 124 123
228 206 226 237 255 291 301 304 310 319 320 321 310 279 61 228 135 202 52 150 174 238 288 284 142 161 149 166 119 130 147 177 177 213 210 165 187 223 48 331 331 337 320 299 309 299 231 158 172 167 151 160 143 150
216 204 232 240 259 275 305 311 316 327 328 331 57 37 215 350 287 202 177 200 198 202 221 261 289 124 172 151 178 145 163 221 190 193 120 228 248 112 38 353 306 308 302 301 307 303 295 286 206 198 204 189 169 163
210 222 209 223 261 285 322 314 337 340 11 25 50 296 299 300 206 220 234 233 182 223 201 239 256 168 340 141 162 17 152 78 215 205 224 230 203 344 348 330 328 325 309 295 262 258 257 251 229 205 199 184 166 162
210 199 218 241 255 247 315 322 1 42 169 210 240 273 319 269 213 250 224 214 211 226 175 203 224 47 100 47 83 21 119 77 249 135 217 239 111 339 334 334 334 328 323 321 316 316 296 250 231 201 175 167 160 144
193 211 207 238 250 234 301 319 2 335 341 163 196 143 181 182 240 229 192 212 209 146 358 20 81 73 75 28 69 86 152 224 100 204 235 122 1 340 335 329 326 328 337 342 341 340 346 354 138 149 140 136 138 140
205 213 208 240 254 257 290 308 20 54 76 224 197 170 203 207 235 211 183 358 5 38 45 60 61 132 121 81 148 168 209 129 231 234 219 64 324 326 328 328 332 334 342 342 346 346 345 30 68 80 108 131 138 141
198 204 218 254 219 257 280 150 142 85 111 189 162 224 206 226 330 284 187 70 336 313 7 113 14 169 86 151 198 169 199 233 221 208 112 241 305 319 328 337 337 336 338 341 342 343 342 342 132 131 142 148 142 141
195 211 197 173 263 87 109 93 60 98 50 71 247 267 249 108 185 253 269 141 46 331 343 347 161 175 210 173 170 212 223 223 182 152 198 251 310 312 317 328 331 330 331 334 338 338 336 351 302 185 137 147 157 164
190 141 163 159 122 81 69 76 57 80 158 248 251 231 219 276 247 231 214 112 74 329 234 198 205 186 117 192 218 203 219 166 155 216 217 214 258 294 312 320 332 339 340 340 337 343 338 333 1 134 176 189 174 167
124 165 160 161 121 99 27 28 91 104 245 242 232 269 228 222 281 117 73 11 78 269 278 270 100 207 219 201 223 173 162 184 190 170 208 253 277 287 321 316 324 322 326 328 327 316 330 352 355 264 122 114 111 130
153 160 166 161 133 113 99 327 73 229 236 260 286 287 180 183 11 74 62 354 72 73 309 262 234 214 230 216 180 184 181 152 170 180 256 281 212 335 323 310 316 332 320 331 333 322 309 300 280 247 187 164 162 156
156 158 157 142 118 89 44 310 66 147 261 273 330 305 285 340 40 29 340 358 60 23 296 216 221 214 198 209 194 154 158 143 119 63 301 308 317 1 319 312 311 323 325 321 324 343 332 321 304 242 202 182 161 184
88 113 100 86 52 75 138 152 322 201 273 261 254 176 273 18 233 190 268 158 178 215 237 223 230 226 126 144 125 114 140 158 176 176 192 269 269 256 278 295 312 307 318 331 326 326 341 298 278 259 221 208 191 171
109 113 96 58 85 27 55 275 169 281 118 255 340 3 225 234 213 214 229 201 228 231 200 190 211 159 160 173 179 174 165 156 149 189 248 263 272 298 285 266 314 290 297 290 308 305 295 297 285 238 215 228 186 167
102 89 85 102 78 75 250 40 87 306 167 268 17 342 267 251 227 94 244 230 251 229 191 177 185 193 151 131 112 132 160 160 191 210 230 232 243 241 244 261 242 247 289 280 276 287 287 293 298 254 200 179 150 178
98 135 155 180 141 205 62 304 258 288 352 237 185 269 253 228 185 210 252 242 240 223 172 183 142 93 37 33 187 210 203 174 187 257 225 215 292 287 277 274 258 230 246 276 269 274 277 275 287 217 182 172 179 182
162 203 151 191 317 96 145 188 237 157 242 191 205 267 256 174 230 245 241 258 257 227 191 160 179 172 166 225 278 237 205 170 181 215 243 197 223 310 283 264 268 254 240 261 273 275 287 279 252 204 190 196 191 182
228 194 178 184 202 160 184 161 197 204 187 196 220 201 359 128 314 245 234 227 223 195 183 188 184 167 246 208 193 197 224 181 140 208 244 198 193 192 231 271 295 284 232 228 224 266 293 277 248 217 208 215 213 183
220 194 193 276 144 122 117 28 113 145 183 205 197 166 154 231 242 247 265 217 209 219 199 172 171 188 203 183 221 207 180 162 180 194 156 177 194 193 186 229 261 249 224 227 240 248 268 280 269 235 219 211 213 190
202 162 173 183 176 201 148 166 178 194 187 183 135 186 204 209 241 238 219 244 219 180 112 84 199 169 157 188 181 124 122 51 342 332 293 246 218 221 226 240 248 265 266 246 248 247 245 244 260 252 217 214 208 184
170 195 122 149 156 196 200 179 202 211 172 161 176 206 232 230 243 243 266 239 108 102 121 198 289 50 49 36 42 196 152 148 132 268 272 278 314 285 226 232 237 247 257 257 273 270 255 236 227 234 223 213 197 172
211 166 118 164 174 210 217 183 195 117 25 155 159 327 287 268 250 178 151 158 181 214 208 181 166 152 200 179 254 299 238 203 201 195 225 260 249 227 234 250 258 251 239 243 261 269 279 279 272 232 212 166 154 158
138 111 98 158 214 261 13 59 50 58 46 10 348 202 256 303 298 235 210 210 167 131 134 198 235 205 176 202 202 238 282 245 206 229 242 260 267 263 256 249 245 237 232 238 255 265 273 272 259 163 148 159 173 164
104 159 138 154 234 226 195 79 90 99 332 355 275 348 308 344 272 272 207 114 99 187 232 187 173 248 213 216 211 231 248 233 233 240 244 256 259 256 254 250 234 222 236 246 252 254 262 245 167 164 160 162 166 157
64 62 73 115 132 165 156 136 66 328 278 265 255 212 231 225 244 275 285 186 165 179 196 206 215 211 211 212 217 246 270 240 264 279 282 280 279 276 250 220 214 210 225 238 243 252 210 173 165 159 155 152 151 152